(563) Suleika
ephemeris date magn radius delta ra dec elong phase
Opposition19 May 202613.13.351 AU2.344 AU15h52m-13°30'173.4°2.0°
Today18 Jun 202613.63.353 AU2.459 AU15h28m-13°23'146.4°9.6°
(563) Suleika - 2026-06-18
astro.vanbuitenen.nl


 
-1 year
-1 month
-1 day
Now
+1 day
+1 month
+1 year

The interactive orbit chart above shows the body's path through the solar system and its position at the given date. Green and blue lines are shown perpendicular to the ecliptic plane: Green if the path is above the ecliptic plane, blue if it is below. (Left-click and drag to rotate the view; Right-click and drag to move the view; Use scroll wheel to zoom in our out.)

The orbital elements of Suleika are:

            e (Eccentricity)                : 0.2361504
            a (Semimajor axis)              : 2.7122091
            i (Inclination)                 : 10.24688
            Ω (Longitude of ascending node) : 85.15315
            ω (Argument of perihelion)      : 336.60875
            M (Mean anomaly)                : 179.17664
            Epoch                           : 2026 Jun 09

            L (Longitude of perihelion)     : 62.09572
            B (Latitude of perihelion)      : -4.04981
            P (Orbital period in years)     : 4.47            
        

The light curve chart below shows the estimated development of the minor planet's magnitude.


The all-sky chart below shows the path of the minor planet over the same period as the light curve. The current position is marked yellow.





The following chart shows the path of the minor planet in the next few days. The field of view is optimized for (~10x50) binoculars and finderscopes.




Ephemerides:
Date       Time       RA (2000)    DEC (2000)    delta   radius  elong  phase   PA    magn
2026-06-18 00:00 UT   15 28 59.0   -13 23 40     2.459    3.353  146.4    9.6   112   13.6 
2026-06-18 11:09 UT   15 28 41.7   -13 24 00     2.462    3.353  145.9    9.8   112   13.6 
2026-06-19 00:00 UT   15 28 21.9   -13 24 24     2.466    3.353  145.4    9.9   112   13.6 
2026-06-20 00:00 UT   15 27 46.0   -13 25 13     2.475    3.353  144.3   10.2   112   13.6 
2026-06-21 00:00 UT   15 27 11.1   -13 26 05     2.483    3.352  143.2   10.5   111   13.6 
2026-06-22 00:00 UT   15 26 37.3   -13 27 03     2.491    3.352  142.2   10.7   111   13.7 
2026-06-23 00:00 UT   15 26 04.7   -13 28 04     2.500    3.352  141.1   11.0   111   13.7 
2026-06-24 00:00 UT   15 25 33.2   -13 29 10     2.509    3.352  140.0   11.2   110   13.7 
2026-06-25 00:00 UT   15 25 02.9   -13 30 21     2.518    3.352  139.0   11.5   110   13.7 
2026-06-26 00:00 UT   15 24 33.7   -13 31 35     2.528    3.352  137.9   11.7   110   13.7 
2026-06-27 00:00 UT   15 24 05.8   -13 32 55     2.537    3.352  136.9   12.0   110   13.8 
2026-06-28 00:00 UT   15 23 39.1   -13 34 18     2.547    3.352  135.9   12.2   110   13.8 
2026-06-29 00:00 UT   15 23 13.5   -13 35 46     2.557    3.352  134.8   12.4   109   13.8 
2026-06-30 00:00 UT   15 22 49.2   -13 37 19     2.567    3.352  133.8   12.6   109   13.8 
2026-07-01 00:00 UT   15 22 26.1   -13 38 56     2.577    3.352  132.8   12.9   109   13.8 
2026-07-02 00:00 UT   15 22 04.3   -13 40 37     2.588    3.352  131.7   13.1   109   13.8 
2026-07-03 00:00 UT   15 21 43.6   -13 42 22     2.598    3.351  130.7   13.3   109   13.9 
2026-07-04 00:00 UT   15 21 24.2   -13 44 12     2.609    3.351  129.7   13.5   109   13.9 
2026-07-05 00:00 UT   15 21 06.1   -13 46 07     2.620    3.351  128.7   13.7   108   13.9 
2026-07-06 00:00 UT   15 20 49.2   -13 48 05     2.631    3.351  127.7   13.9   108   13.9 
2026-07-07 00:00 UT   15 20 33.6   -13 50 08     2.643    3.351  126.7   14.1   108   13.9 
2026-07-08 00:00 UT   15 20 19.2   -13 52 15     2.654    3.351  125.7   14.3   108   13.9 
2026-07-09 00:00 UT   15 20 06.0   -13 54 26     2.666    3.351  124.7   14.4   108   13.9 
2026-07-10 00:00 UT   15 19 54.2   -13 56 42     2.677    3.350  123.7   14.6   108   14.0 
2026-07-11 00:00 UT   15 19 43.6   -13 59 02     2.689    3.350  122.8   14.8   108   14.0 
2026-07-12 00:00 UT   15 19 34.2   -14 01 26     2.701    3.350  121.8   14.9   107   14.0 
2026-07-13 00:00 UT   15 19 26.1   -14 03 54     2.713    3.350  120.8   15.1   107   14.0 
2026-07-14 00:00 UT   15 19 19.3   -14 06 26     2.726    3.350  119.8   15.3   107   14.0 
2026-07-15 00:00 UT   15 19 13.7   -14 09 02     2.738    3.349  118.9   15.4   107   14.0 
2026-07-16 00:00 UT   15 19 09.4   -14 11 43     2.751    3.349  117.9   15.6   107   14.1 
2026-07-17 00:00 UT   15 19 06.4   -14 14 27     2.763    3.349  117.0   15.7   107   14.1 
2026-07-18 00:00 UT   15 19 04.6   -14 17 15     2.776    3.349  116.0   15.8   107   14.1 


    Terminology:
            
    delta:  distance between minor planet and earth in AU
    radius: distance between minor planet and sun in AU
    magn:   magnitude (brightness) estimate    
    ra:     right ascension in hours (24h = 360deg)
    dec:    declination in degrees
    elong:  elongation in degrees (angle sun-earth-minor planet)    
    phase:  phase angle in degrees (angle sun-minor planet-earth)        
    AU:     Astronomical Unit (mean distance between earth and sun: 149597870.7 km
    

Orbital elements provided by the MPC (Minor Planet Center).
Calculations by a modified version of AAPlus, a C# implementation of the AA+ project by PJ Naughter from the algorithms presented in the book "Astronomical Algorithms" by Jean Meeus.
NGC2000 dso catalog and star labels from VizieR as provided by the Strasbourg astronomical Data Center.
Tycho2 catalog from the ESO archive.